Location: Pontbriand
(46.1542°N, 71.2542°W)
Time: 16:01:11
(UTC+00:00)

Envisat - Pass Details

Date: 04 December 2021
Orbit: 764 x 766 km, 98.2° (Epoch: 16 January)

Event Time Altitude Azimuth Distance (km) Brightness Sun altitude
Rises 08:52:32 0° 24° (NNE) 3,243 6.5 -33.5°
Reaches altitude 10° 08:55:13 10° 37° (NE) 2,312 5.9 -33.0°
Maximum altitude 08:59:28 26° 93° (E) 1,469 5.0 -32.3°
Drops below altitude 10° 09:03:41 10° 150° (SSE) 2,296 5.8 -31.5°
Sets 09:06:19 0° 163° (SSE) 3,217 6.4 -31.1°
